Weather History for KIND - August, 2013

Change the Weather History Date:

Wednesday, August 7, 2013

  Actual Average Record
Temperature  
Mean Temperature 78 °F 75 °F  
Max Temperature 85 °F 84 °F 98 °F (1930)
Min Temperature 70 °F 65 °F 49 °F (1989)
Degree Days  
Heating Degree Days 0 0  
Month to date heating degree days 0 0  
Since 1 June heating degree days 12 17  
Since 1 July heating degree days 3 1  
Cooling Degree Days 13 10  
Month to date cooling degree days 61 70  
Year to date cooling degree days 701 703  
Since 1 June cooling degree days 572 619  
Growing Degree Days 27 (Base 50)    
Moisture  
Dew Point 70 °F    
Average Humidity 81    
Maximum Humidity 97    
Minimum Humidity 65    
Precipitation  
Precipitation T in 0.10 in 1.08 in (1896)
Month to date precipitation 0.71 0.74  
Year to date precipitation 29.49 26.94  
Snow  
Snow 0.00 in 0.00 in 0.00 in ()
Month to date snowfall 0.0 0.0  
Since 1 June snowfall 0.0 0.0  
Since 1 July snowfall 0.0 0.0  
Snow Depth 0.00 in    
Sea Level Pressure  
Sea Level Pressure 29.90 in    
Wind  
Wind Speed 7 mph (SSW)    
Max Wind Speed 16 mph    
Max Gust Speed 18 mph    
Visibility 5 miles    
Events Fog    
T = Trace of Precipitation, MM = Missing Value Source: NWS Daily Summary

Daily Weather History Graph

Daily Weather History Graph

Search for Another Location

Airport or City:

Trip Planner

Search our weather history database for the weather conditions in past years. The results will help you decide how hot, cold, wet, or windy it might be!

Date:

Astronomy

Aug. 07, 2013 Rise Set
Actual Time 6:50 AM EDT 8:51 PM EDT
Civil Twilight 6:20 AM EDT 9:20 PM EDT
Nautical Twilight 5:44 AM EDT 9:56 PM EDT
Astronomical Twilight 5:05 AM EDT 10:35 PM EDT
Moon 7:37 AM EDT (8/7) 8:58 PM EDT (8/7)
Length of Visible Light 15h 00m
Length of Day
14h 01m
New Moon, 1% of the Moon is Illuminated
Aug 7
New Moon
Aug 14
First Quarter
Aug 20
Full
Aug 28
Last Quarter
Sep 5
New

Hourly Weather History & Observations

Time (EDT) Temp. Heat Index Dew Point Humidity Pressure Visibility Wind Dir Wind Speed Gust Speed Precip Events Conditions
12:54 AM 73.9 °F - 71.1 °F 91% 29.91 in 7.0 mi SSW 5.8 mph - N/A   Mostly Cloudy
1:54 AM 73.0 °F - 70.0 °F 90% 29.90 in 5.0 mi SSW 8.1 mph - N/A   Scattered Clouds
2:54 AM 72.0 °F - 69.1 °F 91% 29.90 in 4.0 mi SW 4.6 mph - N/A   Scattered Clouds
3:36 AM 71.6 °F - 69.8 °F 94% 29.91 in 2.0 mi SW 3.5 mph - N/A   Partly Cloudy
3:45 AM 71.6 °F - 68.0 °F 88% 29.91 in 1.8 mi SSW 3.5 mph - N/A   Partly Cloudy
3:54 AM 71.1 °F - 69.1 °F 93% 29.89 in 2.0 mi Calm Calm - N/A   Partly Cloudy
3:56 AM 71.6 °F - 69.8 °F 94% 29.91 in 2.0 mi Calm Calm - N/A   Scattered Clouds
4:54 AM 72.0 °F - 69.1 °F 91% 29.88 in 2.5 mi SSW 5.8 mph - N/A   Scattered Clouds
5:10 AM 71.6 °F - 69.8 °F 94% 29.89 in 1.8 mi South 5.8 mph - N/A   Scattered Clouds
5:14 AM 71.6 °F - 69.8 °F 94% 29.89 in 1.0 mi South 4.6 mph - N/A   Scattered Clouds
5:27 AM 71.6 °F - 69.8 °F 94% 29.89 in 2.5 mi South 4.6 mph - N/A   Scattered Clouds
5:54 AM 70.0 °F - 68.0 °F 93% 29.87 in 2.0 mi SSE 4.6 mph - N/A   Mostly Cloudy
5:58 AM 71.6 °F - 68.0 °F 88% 29.89 in 0.8 mi SSE 4.6 mph - N/A   Mostly Cloudy
6:11 AM 71.6 °F - 68.0 °F 88% 29.88 in 0.5 mi SSE 4.6 mph - N/A Fog Fog
6:22 AM 71.6 °F - 69.8 °F 94% 29.88 in 0.5 mi SSE 6.9 mph - N/A Fog Fog
6:42 AM 71.6 °F - 69.8 °F 94% 29.89 in 0.5 mi Calm Calm - N/A Fog Fog
6:54 AM 73.0 °F - 69.1 °F 87% 29.88 in 0.2 mi South 6.9 mph - N/A Fog Fog
7:08 AM 73.4 °F - 69.8 °F 88% 29.90 in 0.2 mi South 6.9 mph - N/A   Haze
7:36 AM 75.2 °F - 69.8 °F 83% 29.90 in 0.5 mi South 8.1 mph - N/A   Haze
7:54 AM 75.0 °F - 70.0 °F 84% 29.89 in 1.0 mi South 9.2 mph - N/A   Haze
8:15 AM 75.2 °F - 69.8 °F 83% 29.91 in 0.8 mi SSE 9.2 mph - N/A   Haze
8:54 AM 75.0 °F - 70.0 °F 84% 29.90 in 0.8 mi South 6.9 mph - N/A   Haze
9:02 AM 75.2 °F - 69.8 °F 83% 29.92 in 1.0 mi South 8.1 mph - N/A   Haze
9:25 AM 75.2 °F - 69.8 °F 83% 29.93 in 2.0 mi SSW 8.1 mph - N/A   Haze
9:54 AM 73.0 °F - 70.0 °F 90% 29.91 in 2.5 mi SSW 9.2 mph - N/A   Overcast
10:02 AM 73.4 °F - 69.8 °F 88% 29.92 in 3.0 mi SSW 6.9 mph - N/A   Overcast
10:13 AM 73.4 °F - 69.8 °F 88% 29.92 in 4.0 mi SSW 8.1 mph - N/A   Overcast
10:39 AM 75.2 °F - 69.8 °F 83% 29.93 in 6.0 mi SW 10.4 mph - N/A   Haze
10:43 AM 75.2 °F - 69.8 °F 83% 29.94 in 6.0 mi SW 13.8 mph - N/A   Haze
10:54 AM 75.0 °F - 70.0 °F 84% 29.92 in 8.0 mi SW 9.2 mph - N/A   Overcast
11:54 AM 77.0 °F - 69.1 °F 76% 29.91 in 10.0 mi SW 9.2 mph - N/A   Overcast
12:33 PM 78.8 °F - 69.8 °F 74% 29.93 in 10.0 mi SW 10.4 mph - N/A   Mostly Cloudy
12:54 PM 79.0 °F - 70.0 °F 74% 29.91 in 10.0 mi SW 8.1 mph - N/A   Mostly Cloudy
1:23 PM 80.6 °F 84.6 °F 71.6 °F 74% 29.92 in 10.0 mi SW 5.8 mph - N/A   Mostly Cloudy
1:54 PM 81.0 °F 84.4 °F 70.0 °F 69% 29.89 in 10.0 mi Variable 4.6 mph - N/A   Mostly Cloudy
2:34 PM 80.6 °F 84.6 °F 71.6 °F 74% 29.90 in 10.0 mi South 9.2 mph - N/A   Mostly Cloudy
2:54 PM 82.0 °F 86.3 °F 71.1 °F 69% 29.88 in 10.0 mi SSW 9.2 mph - N/A   Overcast
3:27 PM 82.4 °F 87.2 °F 71.6 °F 70% 29.89 in 10.0 mi South 8.1 mph - N/A   Overcast
3:54 PM 84.0 °F 89.0 °F 71.1 °F 65% 29.86 in 10.0 mi South 10.4 mph - N/A   Overcast
4:54 PM 82.9 °F 87.5 °F 71.1 °F 67% 29.86 in 10.0 mi SSW 10.4 mph - N/A   Overcast
5:54 PM 82.9 °F 87.5 °F 71.1 °F 67% 29.85 in 10.0 mi SSW 6.9 mph - N/A   Overcast
6:54 PM 81.0 °F 85.2 °F 72.0 °F 74% 29.86 in 9.0 mi SSW 11.5 mph - N/A   Overcast
7:54 PM 79.0 °F - 72.0 °F 79% 29.86 in 8.0 mi South 8.1 mph - 0.00 in   Overcast
8:54 PM 77.0 °F - 72.0 °F 84% 29.87 in 7.0 mi SSW 5.8 mph - N/A   Overcast
9:54 PM 75.9 °F - 71.1 °F 85% 29.89 in 10.0 mi SW 4.6 mph - N/A   Overcast
10:54 PM 75.9 °F - 72.0 °F 87% 29.91 in 10.0 mi SSW 4.6 mph - N/A   Overcast
11:54 PM 75.9 °F - 72.0 °F 87% 29.89 in 10.0 mi SW 8.1 mph - N/A   Overcast